Starlink 30489

operational
NORAD ID: 57974 Int'l Des: 2023-151 Owner: SPXS Country: US Constellation: starlink
LEOCIRCULAR

Über Starlink 30489

Beschreibung wird geladen...

Live-Position

3D-Globus wird geladen...

Nächste Überflüge

Höhenverlauf

Altitude vs Time

uPlot chart will show altitude changes over time

Zweizeiliger Elementsatz

1 57974U 23151L 25304.03776706 .00003231 00000-0 25398-3 0 9993
2 57974 43.0047 323.0139 0003007 270.5823 89.4675 15.02557620116235
Epoch: 31. Okt. 2025 • Age: 13 hours

Aktueller Status

Höhe 561.0 km
Geschwindigkeit 7.58 km/s
Subsatellitenpunkt 29.13°N, 150.6°W
Startdatum 30. Sept. 2023
Alter 2 years
Typ internet

Technische Details

Klassifizierung Payload
Masse 730.00 kg
Trockenmasse 700.00 kg
Gesamtmasse 730.00 kg
Länge 0.30 m
Durchmesser 4.10 m
Spannweite 29.00 m
Form Box + pan
Hersteller SPXS
Bus-Typ Starlink V2M
Phasenstatus In Orbit
Besitzer/Staat SPXS/US

Große Konstellationen

Loading constellations...